Location: Cartignies
(50.0929°N, 3.8447°E)
Time: 15:01:01
(UTC+00:00)

Meteor 1-21 - Pass Details

Date: 12 January 2026
Orbit: 845 x 885 km, 81.2° (Epoch: 16 February)

Event Time Altitude Azimuth Distance (km) Brightness Sun altitude
Rises 17:52:43 0° 179° (S) 3,406 7.5 -16.3°
Reaches altitude 10° 17:55:10 10° 176° (S) 2,471 6.7 -16.7°
Maximum altitude 18:00:40 62° 97° (E) 952 4.2 -17.6°
Drops below altitude 10° 18:06:11 10° 18° (NNE) 2,479 6.3 -18.4°
Enters shadow 18:07:02 - 17° (NNE) 2,802 6.6 -18.6°
